Regional Weather Roundup
Issued by NWS

Home | Current Version | Previous Version | Graphics & Text | Print | Product List | Glossary On
Versions: 1 2 3 4 5 6 7 8 9 10 11 12 13 14 15 16 17 18 19 20 21 22 23 24 25 26 27 28 29 30 31 32 33 34 35 36 37 38 39 40 41 42 43 44 45 46 47 48 49 50
000
ASUS43 KIND 191959
RWRIN

WEATHER ROUNDUP FOR INDIANA
NATIONAL WEATHER SERVICE INDIANAPOLIS IN
300 PM EST SUN FEB 19 2017

NOTE: "FAIR" INDICATES FEW OR NO CLOUDS BELOW 12,000 FEET WITH NO
SIGNIFICANT WEATHER AND/OR OBSTRUCTIONS TO VISIBILITY.

* - STATION DOES NOT REPORT WEATHER SUCH AS PRECIPITATION OR FOG.

+ - STATION NOT QUALITY CONTROLLED BY THE NATIONAL WEATHER SERVICE.
    USE DATA WITH CAUTION...ESPECIALLY DEWPOINT AND RELATIVE
    HUMIDITY OBSERVATIONS.

INZ001>003-010>013-019-020-192100-
NORTHWEST INDIANA

CITY           SKY/WX    TMP DP  RH WIND       PRES   REMARKS
GARY /AIRPORT/ MOSUNNY   57  28  33 CALM      30.06F
KNOX *+        SUNNY     61   5  11 W5        30.05F
MONTICELLO +   SUNNY     61  45  55 SE3       30.06S

$$

LMZ046-743>745-192100-
SOUTHERN LAKE MICHIGAN

STATION/POSITION TIME  TEMP    WIND        PRES    WAVE
                       AIR SEA DIR/SP/G            HT
                 (UTC) (F)     (DEG/KT/KT) (MB)    (FT)
BURNS HARBOR     1940   45      60/  8/  8 1018.6S
MICHIGAN CITY    1930   42     360/  5/  5   N/A

$$

INZ004-005-014>016-021>024-192100-
NORTH CENTRAL INDIANA

CITY           SKY/WX    TMP DP  RH WIND       PRES   REMARKS
ELKHART        SUNNY     64  27  24 N7        30.04F
GOSHEN         SUNNY     63  36  36 W10       30.05S
SOUTH BEND     SUNNY     64  30  27 N8        30.06F
WARSAW +       SUNNY     61  37  41 W8        30.06S

$$

INZ006>009-017-018-025>027-192100-
NORTHEAST INDIANA

CITY           SKY/WX    TMP DP  RH WIND       PRES   REMARKS
ANGOLA *+      SUNNY     63  54  72 N9        30.04R
FORT WAYNE     MOSUNNY   63  38  39 W10       30.06S
KENDALLVILLE + SUNNY     62  33  33 CALM      30.05S

$$

INZ028-029-035-036-043>045-051>053-192100-
WEST CENTRAL INDIANA

CITY           SKY/WX    TMP DP  RH WIND       PRES   REMARKS
LAFAYETTE      SUNNY     62  47  57 VRB3      30.06F
TERRE HAUTE    SUNNY     64  48  56 VRB6      30.07F

$$

INZ030>032-037>040-046>048-054>057-064-065-192100-
CENTRAL INDIANA

CITY           SKY/WX    TMP DP  RH WIND       PRES   REMARKS
CP ATTERBURY + SUNNY     63  46  55 CALM      30.08F
COLUMBUS       SUNNY     57  48  72 S6        30.09F
FRANKFORT +    CLOUDY    66  48  52 W3        30.08S
GREENWOOD *+   MOSUNNY   62  48  61 SW3       30.08S
INDIANAPOLIS   MOSUNNY   63  45  51 VRB3      30.07S
-EAGLE CREEK   SUNNY     63  45  51 CALM      30.06S
KOKOMO +       SUNNY     62  45  53 W6        30.07F
MT COMFORT *+  SUNNY     63  45  51 CALM      30.08R
SHELBYVILLE    SUNNY     58  46  64 S5        30.08S

$$

INZ033-034-041-042-049-050-058-059-192100-
EAST CENTRAL INDIANA

CITY           SKY/WX    TMP DP  RH WIND       PRES   REMARKS
MUNCIE         SUNNY     64  45  49 W9        30.07R

$$

INZ060-061-067>069-081>083-085>088-192100-
SOUTHWEST INDIANA

CITY           SKY/WX    TMP DP  RH WIND       PRES   REMARKS
EVANSVILLE     PTSUNNY   56  49  77 S3        30.12S
HUNTINGBURG *+ CLOUDY    54  48  82 S3        30.12S

$$

INZ062-063-066-070>080-084-089>092-192100-
SOUTH CENTRAL AND SOUTHEAST INDIANA

CITY           SKY/WX    TMP DP  RH WIND       PRES   REMARKS
BLOOMINGTON    SUNNY     58  47  66 SW6       30.09F
MADISON *+     CLOUDY    55  46  71 S5        30.12S
SEYMOUR +      SUNNY     61  48  63 S5        30.09F

$$





USA.gov is the U.S. government's official web portal to all federal, state and local government web resources and services.